UAL2406 KIAH-KLAS

Flight info

Callsign UAL2406
Flight time N/A
Altitude 32000
Route PITZZ5 CRGER FUSCO/N0444F340 Q20 CNX HAHAA RKSTR4
Aircraft B738/M-SDE2E3FGHIRWXY/LB1

Departure

Time 2026-05-07 22:50
Airport George Bush Intercontinental Airport (KIAH)

Arrival

Time N/A
Airport Harry Reid International Airport (KLAS)
Time Latitude Longitude Altitude Speed Heading
2026-05-07 22:16 29.98464 -95.34683 -41 ft 0 kts 314°
2026-05-07 22:41 29.98451 -95.34665 99 ft 4 kts 319°
2026-05-07 22:41 29.98433 -95.34656 98 ft 4 kts 330°
2026-05-07 22:41 29.98421 -95.34642 97 ft 4 kts 249°
2026-05-07 22:42 29.98437 -95.34624 98 ft 4 kts 192°
2026-05-07 22:42 29.98463 -95.34622 97 ft 3 kts 180°
2026-05-07 22:42 29.98466 -95.34622 96 ft 2 kts 180°
2026-05-07 22:45 29.98455 -95.34622 97 ft 4 kts 180°
2026-05-07 22:45 29.98417 -95.34619 99 ft 7 kts 179°
2026-05-07 22:45 29.98387 -95.34659 98 ft 8 kts 257°
2026-05-07 22:45 29.98382 -95.34729 98 ft 10 kts 269°
2026-05-07 22:46 29.98382 -95.34816 98 ft 12 kts 271°
2026-05-07 22:46 29.98383 -95.34918 99 ft 14 kts 270°
2026-05-07 22:46 29.98382 -95.35035 98 ft 15 kts 270°
2026-05-07 22:46 29.98385 -95.35165 98 ft 17 kts 278°
2026-05-07 22:47 29.98468 -95.35256 101 ft 17 kts 331°
2026-05-07 22:47 29.98588 -95.35279 98 ft 19 kts 359°
2026-05-07 22:47 29.98721 -95.35280 99 ft 20 kts
2026-05-07 22:47 29.98861 -95.35282 97 ft 20 kts 351°
2026-05-07 22:48 29.98920 -95.35407 96 ft 20 kts 269°
2026-05-07 22:48 29.98882 -95.35562 98 ft 20 kts 242°
2026-05-07 22:48 29.98830 -95.35675 99 ft 9 kts 241°
2026-05-07 22:48 29.98799 -95.35736 101 ft 9 kts 232°
2026-05-07 22:49 29.98746 -95.35758 103 ft 9 kts 164°
2026-05-07 22:49 29.98736 -95.35753 103 ft 2 kts 157°
2026-05-07 22:49 29.98709 -95.35738 103 ft 13 kts 150°
2026-05-07 22:49 29.98434 -95.35569 101 ft 76 kts 152°
2026-05-07 22:50 29.97793 -95.35175 100 ft 131 kts 152°
2026-05-07 22:50 29.96842 -95.34592 126 ft 174 kts 150°
2026-05-07 22:50 29.95689 -95.33934 445 ft 192 kts 154°
2026-05-07 22:50 29.94422 -95.33294 959 ft 203 kts 155°
2026-05-07 22:51 29.93075 -95.32781 1438 ft 212 kts 180°
2026-05-07 22:51 29.91786 -95.33442 2063 ft 210 kts 233°
2026-05-07 22:51 29.91270 -95.35049 2412 ft 224 kts 261°
2026-05-07 22:51 29.91027 -95.36891 2655 ft 237 kts 262°
2026-05-07 22:52 29.90686 -95.38792 2908 ft 250 kts 251°
2026-05-07 22:52 29.90068 -95.40707 3266 ft 257 kts 245°
2026-05-07 22:52 29.89124 -95.42523 3629 ft 269 kts 234°